Simultaneous Nadir Overpasses (SNOs) Predictions

Prediction of SNOs between NPP and LANDSAT-9 Satellite Orbit:

Table of predicted SNOs for the next 14.0 days since TLE Epoch: 3/2/2024
Index Date (NPP) Time (NPP) Lat,Lon (NPP) SZA (NPP ) Date (LANDSAT-9) Time (LANDSAT-9) Lat,Lon (LANDSAT-9) SZA (LANDSAT-9 ) Distance(km) Time Diff (sec)
1 03/02/2024 06:32:50 70.16, 78.10 77.18 03/02/2024 06:33:50 70.14, 78.03 77.16 3.20 60
2 03/02/2024 07:23:32 -70.08,-114.45 102.92 03/02/2024 07:23:19 -70.08,-114.43 102.92 1.28 13
3 03/02/2024 08:14:05 69.37, 53.89 76.33 03/02/2024 08:12:56 69.43, 52.32 76.46 61.81 69
4 03/04/2024 22:49:42 70.17,-166.14 76.16 03/04/2024 22:50:19 70.15,-166.10 76.13 3.17 37
5 03/04/2024 23:40:23 -70.04, 1.39 104.00 03/04/2024 23:39:49 -70.03, 1.38 104.00 0.49 34
6 03/07/2024 14:16:03 -70.94, 141.10 104.06 03/07/2024 14:17:11 -70.83, 143.14 104.26 75.18 68
7 03/07/2024 15:06:34 70.14, -50.31 75.08 03/07/2024 15:06:49 70.12, -50.26 75.06 2.84 15
8 03/07/2024 15:57:15 -70.00, 117.22 105.08 03/07/2024 15:56:19 -70.01, 117.22 105.06 1.11 56
9 03/10/2024 06:32:41 -70.18,-101.90 105.92 03/10/2024 06:33:52 -70.18,-101.94 105.93 1.77 71
10 03/10/2024 07:23:25 70.07, 65.59 73.95 03/10/2024 07:23:19 70.07, 65.55 73.96 1.72 6
11 03/10/2024 08:14:04 -69.82,-126.72 106.33 03/10/2024 08:12:51 -69.86,-127.12 106.27 15.76 73
12 03/12/2024 22:49:33 -70.16, 13.91 107.00 03/12/2024 22:50:21 -70.16, 13.91 107.01 0.26 48
13 03/12/2024 23:40:17 70.05,-178.61 72.88 03/12/2024 23:39:48 70.05,-178.61 72.88 0.25 29
14 03/15/2024 14:15:59 71.14, -39.21 72.99 03/15/2024 14:17:04 71.04, -36.53 72.78 97.04 65
15 03/15/2024 15:06:23 -70.10, 129.79 108.12 03/15/2024 15:06:49 -70.12, 129.72 108.11 2.91 26
16 03/15/2024 15:57:07 69.99, -62.73 71.75 03/15/2024 15:56:16 70.00, -62.79 71.77 2.52 51



Historial Predications of SNOs between NPP and LANDSAT-9
